Monticello, KY

6:08 PM CST on February 06, 2016 (GMT -0600)
Wayne County

Weather History for KEKQ - March, 2013

Change the Weather History Date:

Wednesday, March 6, 2013

  Actual Average Record
Temperature  
Mean Temperature 30 °F -  
Max Temperature 33 °F 56 °F 77 °F (1973)
Min Temperature 28 °F 33 °F -11 °F (2015)
Degree Days  
Heating Degree Days 34    
Moisture  
Dew Point 28 °F    
Average Humidity 89    
Maximum Humidity 93    
Minimum Humidity 75    
Precipitation  
Precipitation 0.00 in - - ()
Sea Level Pressure  
Sea Level Pressure 30.12 in    
Wind  
Wind Speed 13 mph (ESE)    
Max Wind Speed 18 mph    
Max Gust Speed 25 mph    
Visibility 5 miles    
Events Snow    
Averages and records for this station are not official NWS values.
T = Trace of Precipitation, MM = Missing Value Source: NWS Daily Summary

Daily Weather History Graph

Daily Weather History Graph

Search for Another Location

Airport or City:

Trip Planner

Search our weather history database for the weather conditions in past years. The results will help you decide how hot, cold, wet, or windy it might be!

Date:

Astronomy

Mar. 06, 2013 Rise Set
Actual Time 6:02 AM CST 5:38 PM CST
Civil Twilight 5:37 AM CST 6:04 PM CST
Nautical Twilight 5:07 AM CST 6:34 PM CST
Astronomical Twilight 4:37 AM CST 7:04 PM CST
Moon 2:05 AM CST (3/6) 12:25 PM CST (3/6)
Length of Visible Light 12h 27m
Length of Day
11h 35m
Waning Crescent, 29% of the Moon is Illuminated
Mar 6
Waning Crescent
Mar 11
New
Mar 19
First Quarter
Mar 27
Full
Apr 2
Last Quarter

Hourly Weather History & Observations

Time (CST) Temp. Windchill Dew Point Humidity Pressure Visibility Wind Dir Wind Speed Gust Speed Precip Events Conditions
12:12 AM 30.2 °F 19.8 °F 23.0 °F 75% 29.90 in 6.0 mi East 13.8 mph 19.6 mph 0.00 in Snow Light Snow
12:56 AM 29.1 °F 16.7 °F 25.2 °F 85% 29.93 in 3.0 mi East 18.4 mph 25.3 mph 0.00 in Snow Light Snow
1:56 AM 29.1 °F 17.9 °F 26.1 °F 88% 29.92 in 4.0 mi East 15.0 mph 20.7 mph 0.00 in Snow Light Snow
2:11 AM 28.4 °F 17.0 °F 26.6 °F 93% 29.88 in 2.5 mi ENE 15.0 mph 21.9 mph 0.00 in Snow Light Snow
2:33 AM 28.4 °F 17.0 °F 26.6 °F 93% 29.88 in 1.8 mi East 15.0 mph 23.0 mph 0.00 in Snow Light Snow
2:37 AM 28.4 °F 17.0 °F 26.6 °F 93% 29.87 in 2.0 mi ENE 15.0 mph 23.0 mph 0.00 in Snow Light Snow
2:56 AM 29.1 °F 17.5 °F 27.1 °F 92% 29.91 in 3.0 mi East 16.1 mph 23.0 mph 0.00 in Snow Light Snow
3:56 AM 30.0 °F 19.5 °F 26.1 °F 85% 29.93 in 3.0 mi East 13.8 mph 23.0 mph 0.00 in Snow Light Snow
4:04 AM 30.2 °F 19.8 °F 26.6 °F 86% 29.90 in 2.5 mi East 13.8 mph 21.9 mph 0.00 in Snow Light Snow
4:19 AM 30.2 °F 20.2 °F 26.6 °F 86% 29.91 in 5.0 mi East 12.7 mph 20.7 mph 0.00 in Snow Light Snow
4:56 AM 30.0 °F 18.7 °F 26.1 °F 85% 29.97 in 5.0 mi ESE 16.1 mph - 0.00 in Snow Light Snow
5:56 AM 31.1 °F 19.7 °F 26.1 °F 82% 30.00 in 10.0 mi ESE 17.3 mph 23.0 mph 0.00 in   Overcast
6:56 AM 31.1 °F 19.7 °F 27.1 °F 85% 30.05 in 6.0 mi ESE 17.3 mph 24.2 mph 0.00 in   Overcast
8:07 AM 30.2 °F 19.8 °F 28.4 °F 93% 30.06 in 1.2 mi ESE 13.8 mph 19.6 mph 0.00 in Snow Light Snow
8:39 AM 30.2 °F 20.8 °F 28.4 °F 93% 30.08 in 1.0 mi ESE 11.5 mph 18.4 mph 0.00 in Snow Light Snow
8:48 AM 30.2 °F 19.8 °F 28.4 °F 93% 30.09 in 0.8 mi ESE 13.8 mph - 0.00 in Snow Light Snow
8:56 AM 30.0 °F 20.0 °F 28.0 °F 92% 30.14 in 1.0 mi ESE 12.7 mph - 0.00 in Snow Light Snow
9:04 AM 30.2 °F 20.2 °F 28.4 °F 93% 30.10 in 1.5 mi ESE 12.7 mph - 0.00 in Snow Light Snow
9:08 AM 30.2 °F 20.8 °F 28.4 °F 93% 30.10 in 2.0 mi ESE 11.5 mph - 0.00 in Snow Light Snow
9:56 AM 31.1 °F 20.5 °F 29.1 °F 92% 30.17 in 3.0 mi ESE 15.0 mph - 0.00 in   Overcast
10:13 AM 30.2 °F 19.8 °F 28.4 °F 93% 30.13 in 2.5 mi SE 13.8 mph 21.9 mph 0.00 in   Overcast
10:36 AM 30.2 °F 19.8 °F 28.4 °F 93% 30.14 in 3.0 mi ESE 13.8 mph 18.4 mph 0.00 in   Overcast
10:56 AM 31.1 °F 20.9 °F 28.0 °F 88% 30.19 in 5.0 mi SE 13.8 mph 21.9 mph 0.00 in   Overcast
11:56 AM 32.0 °F 22.5 °F 28.0 °F 85% 30.21 in 8.0 mi SE 12.7 mph - 0.00 in   Overcast
12:56 PM 32.0 °F 22.5 °F 29.1 °F 89% 30.21 in 10.0 mi SE 12.7 mph - N/A   Overcast
1:56 PM 32.9 °F 24.7 °F 29.1 °F 86% 30.23 in 10.0 mi SE 10.4 mph - 0.00 in   Overcast
2:06 PM 33.8 °F 27.0 °F 28.4 °F 81% 30.19 in 10.0 mi SSE 8.1 mph - N/A   Overcast
2:56 PM 32.9 °F 24.7 °F 29.1 °F 86% 30.26 in 10.0 mi SE 10.4 mph - N/A   Overcast
3:56 PM 32.9 °F 26.7 °F 29.1 °F 86% 30.27 in 10.0 mi SE 6.9 mph - N/A   Overcast
4:56 PM 32.0 °F 24.2 °F 29.1 °F 89% 30.29 in 9.0 mi ESE 9.2 mph - N/A   Overcast
5:56 PM 32.0 °F 24.8 °F 29.1 °F 89% 30.32 in 10.0 mi SE 8.1 mph - N/A   Overcast
6:17 PM 32.0 °F 24.8 °F 28.4 °F 87% 30.27 in 8.0 mi SE 8.1 mph - N/A   Overcast
6:56 PM 32.0 °F 24.8 °F 29.1 °F 89% 30.33 in 5.0 mi SE 8.1 mph - N/A   Overcast
7:56 PM 31.1 °F 24.5 °F 29.1 °F 92% 30.34 in 8.0 mi SE 6.9 mph - N/A   Overcast
8:56 PM 31.1 °F 23.7 °F 28.0 °F 88% 30.35 in 8.0 mi ESE 8.1 mph - N/A   Overcast
9:56 PM 31.1 °F 24.5 °F 27.1 °F 85% 30.34 in 10.0 mi SE 6.9 mph - N/A   Overcast
10:56 PM 31.1 °F 26.4 °F 27.1 °F 85% 30.33 in 8.0 mi SE 4.6 mph - N/A   Overcast
11:18 PM 30.2 °F 25.4 °F 28.4 °F 93% 30.27 in 6.0 mi SSE 4.6 mph - N/A   Overcast
11:56 PM 30.0 °F 24.1 °F 28.0 °F 92% 30.33 in 6.0 mi ESE 5.8 mph - N/A   Overcast